| time (UTC) | temp F | wind direction | speed MPH | gust MPH | rain 1hr in | rain 24hr in | rain mn in | humidity % | barometer mb |
| 20260509173014 | 74 | 117 | 3.0 | 10.0 | 0.00 | 0.00 | 0.00 | 53 | 1010.5 |
| 20260509172507 | 75 | 126 | 1.0 | 7.0 | 0.00 | 0.00 | 0.00 | 55 | 1010.5 |
| 20260509172008 | 75 | 156 | 3.0 | 7.0 | 0.00 | 0.00 | 0.00 | 55 | 1010.5 |
| 20260509171519 | 73 | 116 | 2.0 | 5.0 | 0.00 | 0.00 | 0.00 | 56 | 1010.6 |
| 20260509171011 | 74 | 171 | 1.0 | 6.0 | 0.00 | 0.00 | 0.00 | 53 | 1010.7 |
| 20260509170508 | 74 | 196 | 1.0 | 7.0 | 0.00 | 0.00 | 0.00 | 53 | 1010.7 |
| 20260509170008 | 74 | 90 | 1.0 | 7.0 | 0.00 | 0.00 | 0.00 | 54 | 1010.9 |
| 20260509165508 | 74 | 138 | 2.0 | 11.0 | 0.00 | 0.00 | 0.00 | 56 | 1011.1 |
| 20260509165009 | 73 | 246 | 2.0 | 11.0 | 0.00 | 0.00 | 0.00 | 57 | 1011.3 |
| 20260509164509 | 74 | 142 | 3.0 | 7.0 | 0.00 | 0.00 | 0.00 | 53 | 1011.2 |
| 20260509164009 | 73 | 134 | 2.0 | 6.0 | 0.00 | 0.00 | 0.00 | 61 | 1011.4 |
| 20260509163508 | 72 | 88 | 1.0 | 6.0 | 0.00 | 0.00 | 0.00 | 57 | 1011.6 |
| 20260509163014 | 72 | 144 | 2.0 | 10.0 | 0.00 | 0.00 | 0.00 | 57 | 1011.5 |
| 20260509162508 | 72 | 156 | 3.0 | 10.0 | 0.00 | 0.00 | 0.00 | 55 | 1011.4 |
| 20260509162008 | 72 | 168 | 2.0 | 6.0 | 0.00 | 0.00 | 0.00 | 56 | 1011.3 |
| 20260509161517 | 72 | 142 | 2.0 | 4.0 | 0.00 | 0.00 | 0.00 | 60 | 1011.4 |
| 20260509161014 | 73 | 307 | 1.0 | 4.0 | 0.00 | 0.00 | 0.00 | 60 | 1011.4 |
| 20260509160510 | 71 | 198 | 1.0 | 5.0 | 0.00 | 0.00 | 0.00 | 61 | 1011.5 |
| 20260509160014 | 71 | 159 | 2.0 | 7.0 | 0.00 | 0.00 | 0.00 | 58 | 1011.6 |
| 20260509155508 | 72 | 139 | 3.0 | 7.0 | 0.00 | 0.00 | 0.00 | 54 | 1011.6 |
| 20260509155010 | 72 | 138 | 1.0 | 6.0 | 0.00 | 0.00 | 0.00 | 58 | 1011.6 |
| 20260509154516 | 71 | 195 | 1.0 | 9.0 | 0.00 | 0.00 | 0.00 | 58 | 1011.7 |
| 20260509154011 | 70 | 133 | 3.0 | 9.0 | 0.00 | 0.00 | 0.00 | 58 | 1011.9 |
| 20260509153508 | 71 | 148 | 1.0 | 5.0 | 0.00 | 0.00 | 0.00 | 57 | 1012.1 |
| 20260509153020 | 70 | 328 | 1.0 | 9.0 | 0.00 | 0.00 | 0.00 | 58 | 1012.1 |
| 20260509152507 | 70 | 144 | 4.0 | 9.0 | 0.00 | 0.00 | 0.00 | 60 | 1011.9 |
| 20260509152010 | 70 | 161 | 1.0 | 7.0 | 0.00 | 0.00 | 0.00 | 60 | 1011.9 |
| 20260509151517 | 70 | 184 | 2.0 | 7.0 | 0.00 | 0.00 | 0.00 | 58 | 1012.0 |
| 20260509151008 | 70 | 167 | 2.0 | 7.0 | 0.00 | 0.00 | 0.00 | 59 | 1012.2 |
| 20260509150510 | 70 | 204 | 2.0 | 6.0 | 0.00 | 0.00 | 0.00 | 62 | 1012.2 |
| 20260509150016 | 69 | 83 | 2.0 | 6.0 | 0.00 | 0.00 | 0.00 | 65 | 1012.1 |
| 20260509145510 | 70 | 261 | 2.0 | 6.0 | 0.00 | 0.00 | 0.00 | 63 | 1012.3 |
| 20260509145015 | 69 | 118 | 2.0 | 10.0 | 0.00 | 0.00 | 0.00 | 62 | 1012.4 |
| 20260509144518 | 69 | 360 | 0.0 | 10.0 | 0.00 | 0.00 | 0.00 | 66 | 1012.4 |
| 20260509144007 | 68 | 192 | 3.0 | 10.0 | 0.00 | 0.00 | 0.00 | 63 | 1012.6 |
| 20260509143511 | 69 | 185 | 2.0 | 8.0 | 0.00 | 0.00 | 0.00 | 64 | 1012.7 |
| 20260509143016 | 68 | 120 | 1.0 | 7.0 | 0.00 | 0.00 | 0.00 | 66 | 1012.8 |
| 20260509142508 | 67 | 181 | 1.0 | 7.0 | 0.00 | 0.00 | 0.00 | 68 | 1013.0 |
| 20260509142009 | 67 | 138 | 1.0 | 7.0 | 0.00 | 0.00 | 0.00 | 67 | 1013.1 |
| 20260509141524 | 67 | 113 | 1.0 | 6.0 | 0.00 | 0.00 | 0.00 | 69 | 1013.0 |
| 20260509141013 | 67 | 150 | 1.0 | 6.0 | 0.00 | 0.00 | 0.00 | 66 | 1012.9 |
| 20260509140509 | 67 | 183 | 1.0 | 8.0 | 0.00 | 0.00 | 0.00 | 66 | 1013.0 |
| 20260509140021 | 66 | 265 | 2.0 | 8.0 | 0.00 | 0.00 | 0.00 | 68 | 1012.9 |
| 20260509135510 | 66 | 74 | 2.0 | 8.0 | 0.00 | 0.00 | 0.00 | 70 | 1012.8 |
| 20260509135013 | 65 | 109 | 1.0 | 7.0 | 0.00 | 0.00 | 0.00 | 72 | 1012.8 |
| 20260509134519 | 64 | 182 | 2.0 | 7.0 | 0.00 | 0.00 | 0.00 | 72 | 1012.9 |
| 20260509134009 | 64 | 183 | 1.0 | 5.0 | 0.00 | 0.00 | 0.00 | 73 | 1013.1 |
| 20260509133514 | 63 | 167 | 0.0 | 6.0 | 0.00 | 0.00 | 0.00 | 74 | 1013.1 |
| 20260509133022 | 63 | 204 | 1.0 | 5.0 | 0.00 | 0.00 | 0.00 | 74 | 1013.3 |
| 20260509132511 | 63 | 159 | 0.0 | 5.0 | 0.00 | 0.00 | 0.00 | 75 | 1013.4 |
| 20260509132011 | 63 | 140 | 0.0 | 5.0 | 0.00 | 0.00 | 0.00 | 75 | 1013.4 |
| 20260509131521 | 63 | 173 | 1.0 | 5.0 | 0.00 | 0.00 | 0.00 | 76 | 1013.5 |
| 20260509131012 | 62 | 107 | 0.0 | 4.0 | 0.00 | 0.00 | 0.00 | 77 | 1013.4 |
| 20260509130513 | 62 | 116 | 0.0 | 4.0 | 0.00 | 0.00 | 0.00 | 76 | 1013.3 |
| 20260509130023 | 62 | 194 | 1.0 | 7.0 | 0.00 | 0.00 | 0.00 | 78 | 1013.3 |
| 20260509125519 | 61 | 107 | 1.0 | 7.0 | 0.00 | 0.00 | 0.00 | 77 | 1013.2 |
| 20260509125009 | 61 | 149 | 0.0 | 7.0 | 0.00 | 0.00 | 0.00 | 79 | 1013.1 |
| 20260509124535 | 60 | 123 | 1.0 | 9.0 | 0.00 | 0.00 | 0.00 | 78 | 1013.1 |
| 20260509124009 | 60 | 201 | 2.0 | 9.0 | 0.00 | 0.00 | 0.00 | 79 | 1013.1 |
| 20260509123509 | 60 | 157 | 2.0 | 9.0 | 0.00 | 0.00 | 0.00 | 79 | 1013.1 |
| 20260509123023 | 60 | 121 | 1.0 | 6.0 | 0.00 | 0.00 | 0.00 | 80 | 1013.2 |
| 20260509122516 | 59 | 293 | 0.0 | 6.0 | 0.00 | 0.00 | 0.00 | 80 | 1013.2 |
| 20260509122014 | 59 | 189 | 1.0 | 6.0 | 0.00 | 0.00 | 0.00 | 80 | 1013.2 |
| 20260509121535 | 58 | 116 | 1.0 | 6.0 | 0.00 | 0.00 | 0.00 | 81 | 1013.3 |
| 20260509121011 | 58 | 229 | 1.0 | 8.0 | 0.00 | 0.00 | 0.00 | 82 | 1013.4 |
| 20260509120508 | 58 | 145 | 3.0 | 8.0 | 0.00 | 0.00 | 0.00 | 82 | 1013.6 |
| 20260509120007 | 57 | 246 | 1.0 | 7.0 | 0.00 | 0.00 | 0.00 | 82 | 1013.5 |
| 20260509115504 | 57 | 190 | 1.0 | 6.0 | 0.00 | 0.00 | 0.00 | 83 | 1013.3 |
| 20260509115002 | 57 | 160 | 2.0 | 8.0 | 0.00 | 0.00 | 0.00 | 83 | 1013.2 |
| 20260509114517 | 57 | 159 | 1.0 | 10.0 | 0.00 | 0.00 | 0.00 | 84 | 1013.2 |
| 20260509114006 | 56 | 168 | 1.0 | 10.0 | 0.00 | 0.00 | 0.00 | 84 | 1013.1 |
| 20260509113503 | 56 | 171 | 1.0 | 7.0 | 0.00 | 0.00 | 0.00 | 85 | 1013.0 |
| 20260509113005 | 55 | 146 | 2.0 | 7.0 | 0.00 | 0.00 | 0.00 | 85 | 1013.0 |
| 20260509112506 | 55 | 140 | 1.0 | 6.0 | 0.00 | 0.00 | 0.00 | 85 | 1013.1 |
| 20260509112004 | 55 | 236 | 1.0 | 8.0 | 0.00 | 0.00 | 0.00 | 86 | 1013.1 |
| 20260509111503 | 55 | 126 | 0.0 | 8.0 | 0.00 | 0.00 | 0.00 | 85 | 1013.0 |
| 20260509111007 | 54 | 188 | 3.0 | 8.0 | 0.00 | 0.00 | 0.00 | 86 | 1012.9 |
| 20260509110502 | 54 | 124 | 1.0 | 4.0 | 0.00 | 0.00 | 0.00 | 86 | 1013.0 |
| 20260509110006 | 54 | 165 | 1.0 | 4.0 | 0.00 | 0.00 | 0.00 | 86 | 1013.0 |
| 20260509105507 | 54 | 101 | 1.0 | 4.0 | 0.00 | 0.00 | 0.00 | 85 | 1013.0 |
| 20260509105005 | 54 | 147 | 1.0 | 5.0 | 0.00 | 0.00 | 0.00 | 85 | 1013.0 |
| 20260509104508 | 54 | 195 | 2.0 | 9.0 | 0.00 | 0.00 | 0.00 | 85 | 1013.0 |
| 20260509104006 | 54 | 136 | 2.0 | 9.0 | 0.00 | 0.00 | 0.00 | 85 | 1013.1 |
| 20260509103503 | 54 | 165 | 1.0 | 5.0 | 0.00 | 0.00 | 0.00 | 85 | 1013.0 |
| 20260509103008 | 53 | 180 | 1.0 | 5.0 | 0.00 | 0.00 | 0.00 | 85 | 1013.0 |
| 20260509102506 | 54 | 157 | 0.0 | 3.0 | 0.00 | 0.00 | 0.00 | 85 | 1013.0 |
| 20260509102005 | 54 | 177 | 0.0 | 3.0 | 0.00 | 0.00 | 0.00 | 85 | 1013.0 |
| 20260509101510 | 54 | 226 | 0.0 | 8.0 | 0.00 | 0.00 | 0.00 | 84 | 1012.9 |
| 20260509101007 | 54 | 183 | 2.0 | 8.0 | 0.00 | 0.00 | 0.00 | 85 | 1012.8 |
| 20260509100503 | 53 | 175 | 1.0 | 6.0 | 0.00 | 0.00 | 0.00 | 85 | 1012.8 |
| 20260509100008 | 53 | 211 | 0.0 | 8.0 | 0.00 | 0.00 | 0.00 | 84 | 1012.9 |
| 20260509095510 | 53 | 144 | 0.0 | 8.0 | 0.00 | 0.00 | 0.00 | 84 | 1012.9 |
| 20260509095005 | 53 | 117 | 0.0 | 3.0 | 0.00 | 0.00 | 0.00 | 84 | 1012.9 |
| 20260509094507 | 53 | 130 | 1.0 | 5.0 | 0.00 | 0.00 | 0.00 | 84 | 1012.9 |
| 20260509094009 | 54 | 82 | 2.0 | 6.0 | 0.00 | 0.00 | 0.00 | 83 | 1012.9 |
| 20260509093502 | 54 | 181 | 1.0 | 6.0 | 0.00 | 0.00 | 0.00 | 83 | 1012.9 |
| 20260509093010 | 54 | 134 | 1.0 | 3.0 | 0.00 | 0.00 | 0.00 | 83 | 1013.0 |
| 20260509092507 | 54 | 163 | 1.0 | 6.0 | 0.00 | 0.00 | 0.00 | 82 | 1013.0 |
| 20260509092002 | 54 | 168 | 0.0 | 6.0 | 0.00 | 0.00 | 0.00 | 82 | 1013.1 |
| 20260509091511 | 54 | 170 | 1.0 | 6.0 | 0.00 | 0.00 | 0.00 | 81 | 1013.0 |
| 20260509091012 | 54 | 110 | 1.0 | 6.0 | 0.00 | 0.00 | 0.00 | 81 | 1013.1 |
| 20260509090504 | 54 | 171 | 0.0 | 4.0 | 0.00 | 0.00 | 0.00 | 81 | 1013.1 |
| 20260509090031 | 54 | 215 | 0.0 | 4.0 | 0.00 | 0.00 | 0.00 | 80 | 1013.1 |
| 20260509085507 | 54 | 141 | 0.0 | 6.0 | 0.00 | 0.00 | 0.00 | 80 | 1013.0 |
| 20260509085003 | 54 | 189 | 1.0 | 6.0 | 0.00 | 0.00 | 0.00 | 79 | 1013.0 |
| 20260509084520 | 54 | 144 | 1.0 | 5.0 | 0.00 | 0.00 | 0.00 | 79 | 1012.9 |
| 20260509084010 | 54 | 150 | 1.0 | 5.0 | 0.00 | 0.00 | 0.00 | 79 | 1012.8 |
| 20260509083502 | 54 | 218 | 1.0 | 6.0 | 0.00 | 0.00 | 0.00 | 78 | 1012.9 |
| 20260509083032 | 54 | 196 | 1.0 | 6.0 | 0.00 | 0.00 | 0.00 | 78 | 1012.8 |
| 20260509082513 | 54 | 178 | 1.0 | 6.0 | 0.00 | 0.00 | 0.00 | 77 | 1012.8 |
| 20260509082009 | 54 | 197 | 1.0 | 6.0 | 0.00 | 0.00 | 0.00 | 77 | 1012.9 |
| 20260509081523 | 55 | 191 | 1.0 | 5.0 | 0.00 | 0.00 | 0.00 | 77 | 1012.7 |
| 20260509081016 | 55 | 136 | 1.0 | 5.0 | 0.00 | 0.00 | 0.00 | 76 | 1012.7 |
| 20260509080503 | 55 | 172 | 1.0 | 5.0 | 0.00 | 0.00 | 0.00 | 75 | 1012.8 |
| 20260509080016 | 55 | 171 | 0.0 | 6.0 | 0.00 | 0.00 | 0.00 | 74 | 1012.9 |
| 20260509075510 | 56 | 102 | 1.0 | 6.0 | 0.00 | 0.00 | 0.00 | 74 | 1013.0 |
| 20260509075006 | 56 | 180 | 0.0 | 2.0 | 0.00 | 0.00 | 0.00 | 73 | 1013.0 |
| 20260509074529 | 56 | 144 | 0.0 | 2.0 | 0.00 | 0.00 | 0.00 | 73 | 1013.1 |
| 20260509074006 | 56 | 159 | 0.0 | 2.0 | 0.00 | 0.00 | 0.00 | 72 | 1013.1 |
| 20260509073506 | 56 | 35 | 0.0 | 2.0 | 0.00 | 0.00 | 0.00 | 72 | 1013.1 |
| 20260509073019 | 57 | 200 | 0.0 | 3.0 | 0.00 | 0.00 | 0.00 | 72 | 1013.2 |
| 20260509072514 | 57 | 326 | 0.0 | 4.0 | 0.00 | 0.00 | 0.00 | 72 | 1013.1 |
| 20260509072003 | 57 | 173 | 1.0 | 8.0 | 0.00 | 0.00 | 0.00 | 71 | 1013.1 |
| 20260509071522 | 57 | 196 | 2.0 | 8.0 | 0.00 | 0.00 | 0.00 | 72 | 1013.1 |
| 20260509071004 | 57 | 149 | 2.0 | 7.0 | 0.00 | 0.00 | 0.00 | 71 | 1013.2 |
| 20260509070506 | 57 | 206 | 2.0 | 7.0 | 0.00 | 0.00 | 0.00 | 71 | 1013.2 |
| 20260509070018 | 57 | 107 | 2.0 | 7.0 | 0.00 | 0.00 | 0.00 | 71 | 1013.3 |
| 20260509065504 | 57 | 173 | 1.0 | 7.0 | 0.00 | 0.00 | 0.00 | 71 | 1013.4 |
| 20260509065006 | 57 | 167 | 1.0 | 7.0 | 0.00 | 0.00 | 0.00 | 71 | 1013.5 |
| 20260509064520 | 56 | 109 | 2.0 | 7.0 | 0.00 | 0.00 | 0.00 | 71 | 1013.6 |
| 20260509064005 | 56 | 221 | 1.0 | 5.0 | 0.00 | 0.00 | 0.00 | 71 | 1013.7 |
| 20260509063506 | 56 | 151 | 2.0 | 6.0 | 0.00 | 0.00 | 0.00 | 71 | 1013.8 |
| 20260509063019 | 56 | 148 | 1.0 | 7.0 | 0.00 | 0.00 | 0.00 | 71 | 1013.9 |
| 20260509062503 | 56 | 132 | 2.0 | 7.0 | 0.00 | 0.00 | 0.00 | 70 | 1014.0 |
| 20260509062008 | 56 | 112 | 1.0 | 4.0 | 0.00 | 0.00 | 0.00 | 69 | 1014.1 |
| 20260509061522 | 56 | 155 | 1.0 | 5.0 | 0.00 | 0.00 | 0.00 | 69 | 1014.2 |
| 20260509061003 | 56 | 154 | 1.0 | 5.0 | 0.00 | 0.00 | 0.00 | 68 | 1014.2 |
| 20260509060507 | 56 | 149 | 2.0 | 7.0 | 0.00 | 0.00 | 0.00 | 67 | 1014.3 |
| 20260509060022 | 57 | 156 | 0.0 | 7.0 | 0.00 | 0.00 | 0.00 | 67 | 1014.3 |
| 20260509055503 | 57 | 176 | 2.0 | 7.0 | 0.00 | 0.00 | 0.00 | 67 | 1014.2 |
| 20260509055004 | 56 | 162 | 2.0 | 6.0 | 0.00 | 0.00 | 0.00 | 67 | 1014.2 |
| 20260509054524 | 57 | 163 | 1.0 | 6.0 | 0.00 | 0.00 | 0.00 | 66 | 1014.2 |
| 20260509054007 | 57 | 132 | 1.0 | 8.0 | 0.00 | 0.00 | 0.00 | 66 | 1014.2 |
| 20260509053507 | 57 | 161 | 2.0 | 8.0 | 0.00 | 0.00 | 0.00 | 65 | 1014.3 |
| 20260509053035 | 57 | 185 | 1.0 | 6.0 | 0.00 | 0.00 | 0.00 | 65 | 1014.2 |
| 20260509052506 | 58 | 115 | 2.0 | 6.0 | 0.00 | 0.00 | 0.00 | 64 | 1014.1 |
| 20260509052007 | 58 | 117 | 2.0 | 6.0 | 0.00 | 0.00 | 0.00 | 63 | 1014.0 |
| 20260509051524 | 58 | 157 | 1.0 | 6.0 | 0.00 | 0.00 | 0.00 | 63 | 1013.9 |
| 20260509051009 | 58 | 169 | 0.0 | 7.0 | 0.00 | 0.00 | 0.00 | 62 | 1013.8 |
| 20260509050511 | 58 | 160 | 2.0 | 7.0 | 0.00 | 0.00 | 0.00 | 62 | 1013.8 |
| 20260509050045 | 58 | 150 | 1.0 | 5.0 | 0.00 | 0.00 | 0.00 | 62 | 1013.8 |
| 20260509045503 | 59 | 165 | 1.0 | 7.0 | 0.00 | 0.00 | 0.00 | 61 | 1013.8 |
| 20260509045009 | 59 | 162 | 1.0 | 7.0 | 0.00 | 0.00 | 0.00 | 61 | 1013.8 |
| 20260509044524 | 59 | 158 | 2.0 | 7.0 | 0.00 | 0.00 | 0.00 | 61 | 1013.7 |
| 20260509044011 | 59 | 155 | 2.0 | 8.0 | 0.00 | 0.00 | 0.00 | 61 | 1013.7 |
| 20260509043510 | 59 | 167 | 1.0 | 8.0 | 0.00 | 0.00 | 0.00 | 61 | 1013.8 |
| 20260509043035 | 59 | 165 | 1.0 | 6.0 | 0.00 | 0.00 | 0.00 | 60 | 1013.7 |
| 20260509042509 | 59 | 127 | 1.0 | 4.0 | 0.00 | 0.00 | 0.00 | 60 | 1013.7 |
| 20260509042010 | 59 | 149 | 1.0 | 8.0 | 0.00 | 0.00 | 0.00 | 60 | 1013.8 |
| 20260509041528 | 59 | 187 | 2.0 | 8.0 | 0.00 | 0.00 | 0.00 | 59 | 1013.9 |
| 20260509041009 | 59 | 126 | 1.0 | 5.0 | 0.00 | 0.00 | 0.00 | 59 | 1013.9 |
| 20260509040510 | 59 | 193 | 0.0 | 5.0 | 0.00 | 0.00 | 0.00 | 60 | 1013.9 |
| 20260509040025 | 59 | 190 | 2.0 | 6.0 | 0.00 | 0.00 | 0.00 | 58 | 1013.9 |
| 20260509035505 | 60 | 136 | 2.0 | 6.0 | 0.00 | 0.00 | 0.00 | 58 | 1013.9 |
| 20260509035009 | 60 | 153 | 1.0 | 7.0 | 0.00 | 0.00 | 0.00 | 58 | 1014.0 |
| 20260509034528 | 60 | 153 | 1.0 | 7.0 | 0.00 | 0.00 | 0.00 | 57 | 1014.0 |
| 20260509034005 | 60 | 155 | 2.0 | 9.0 | 0.00 | 0.00 | 0.00 | 57 | 1014.1 |
| 20260509033514 | 60 | 205 | 2.0 | 9.0 | 0.00 | 0.00 | 0.00 | 56 | 1014.1 |
| 20260509033036 | 60 | 126 | 2.0 | 9.0 | 0.00 | 0.00 | 0.00 | 56 | 1014.3 |
| 20260509032507 | 60 | 182 | 3.0 | 9.0 | 0.00 | 0.00 | 0.00 | 56 | 1014.4 |
| 20260509032009 | 60 | 156 | 1.0 | 5.0 | 0.00 | 0.00 | 0.00 | 56 | 1014.4 |
| 20260509031531 | 60 | 148 | 1.0 | 4.0 | 0.00 | 0.00 | 0.00 | 56 | 1014.3 |
| 20260509031007 | 60 | 165 | 1.0 | 7.0 | 0.00 | 0.00 | 0.00 | 55 | 1014.4 |
| 20260509030514 | 60 | 197 | 1.0 | 7.0 | 0.00 | 0.00 | 0.00 | 55 | 1014.2 |
| 20260509030017 | 61 | 156 | 1.0 | 5.0 | 0.00 | 0.00 | 0.00 | 54 | 1014.2 |
| 20260509025507 | 61 | 195 | 1.0 | 5.0 | 0.00 | 0.00 | 0.00 | 54 | 1014.2 |
| 20260509025002 | 61 | 115 | 2.0 | 6.0 | 0.00 | 0.00 | 0.00 | 54 | 1014.3 |
| 20260509024509 | 61 | 150 | 1.0 | 6.0 | 0.00 | 0.00 | 0.00 | 53 | 1014.4 |
| 20260509024011 | 61 | 153 | 1.0 | 6.0 | 0.00 | 0.00 | 0.00 | 54 | 1014.3 |
| 20260509023503 | 60 | 157 | 1.0 | 4.0 | 0.00 | 0.00 | 0.00 | 54 | 1014.4 |
| 20260509023012 | 61 | 166 | 1.0 | 6.0 | 0.00 | 0.00 | 0.00 | 54 | 1014.3 |
| 20260509022507 | 61 | 104 | 1.0 | 6.0 | 0.00 | 0.00 | 0.00 | 54 | 1014.3 |
| 20260509022002 | 61 | 150 | 2.0 | 6.0 | 0.00 | 0.00 | 0.00 | 53 | 1014.2 |
| 20260509021512 | 61 | 155 | 1.0 | 5.0 | 0.00 | 0.00 | 0.00 | 53 | 1014.3 |
| 20260509021008 | 61 | 138 | 1.0 | 4.0 | 0.00 | 0.00 | 0.00 | 52 | 1014.3 |
| 20260509020503 | 61 | 153 | 1.0 | 4.0 | 0.00 | 0.00 | 0.00 | 52 | 1014.3 |
| 20260509020014 | 61 | 207 | 1.0 | 4.0 | 0.00 | 0.00 | 0.00 | 52 | 1014.3 |
| 20260509015510 | 61 | 174 | 1.0 | 4.0 | 0.00 | 0.00 | 0.00 | 52 | 1014.3 |
| 20260509015010 | 60 | 159 | 1.0 | 4.0 | 0.00 | 0.00 | 0.00 | 52 | 1014.1 |
| 20260509014513 | 60 | 176 | 1.0 | 4.0 | 0.00 | 0.00 | 0.00 | 53 | 1014.1 |
| 20260509014002 | 60 | 157 | 1.0 | 5.0 | 0.00 | 0.00 | 0.00 | 52 | 1014.1 |
| 20260509013502 | 60 | 151 | 0.0 | 5.0 | 0.00 | 0.00 | 0.00 | 54 | 1014.1 |
| 20260509013014 | 59 | 158 | 1.0 | 2.0 | 0.00 | 0.00 | 0.00 | 55 | 1014.1 |
| 20260509012502 | 59 | 120 | 0.0 | 2.0 | 0.00 | 0.00 | 0.00 | 56 | 1014.0 |
| 20260509012003 | 59 | 150 | 1.0 | 2.0 | 0.00 | 0.00 | 0.00 | 56 | 1014.0 |
| 20260509011517 | 59 | 144 | 0.0 | 2.0 | 0.00 | 0.00 | 0.00 | 58 | 1013.9 |
| 20260509011005 | 59 | 161 | 0.0 | 2.0 | 0.00 | 0.00 | 0.00 | 56 | 1013.9 |
| 20260509010503 | 60 | 165 | 0.0 | 0.0 | 0.00 | 0.00 | 0.00 | 56 | 1013.9 |
| 20260509010017 | 60 | 165 | 0.0 | 0.0 | 0.00 | 0.00 | 0.00 | 55 | 1013.9 |
| 20260509005503 | 61 | 165 | 0.0 | 0.0 | 0.00 | 0.00 | 0.00 | 53 | 1013.8 |
| 20260509005006 | 61 | 155 | 0.0 | 0.0 | 0.00 | 0.00 | 0.00 | 52 | 1013.9 |
| 20260509004518 | 61 | 155 | 0.0 | 0.0 | 0.00 | 0.00 | 0.00 | 51 | 1013.9 |
| 20260509004003 | 62 | 155 | 0.0 | 0.0 | 0.00 | 0.00 | 0.00 | 50 | 1013.9 |
| 20260509003506 | 63 | 155 | 0.0 | 0.0 | 0.00 | 0.00 | 0.00 | 49 | 1014.0 |
| 20260509003021 | 63 | 155 | 0.0 | 0.0 | 0.00 | 0.00 | 0.00 | 47 | 1013.9 |
| 20260509002502 | 64 | 155 | 0.0 | 0.0 | 0.00 | 0.00 | 0.00 | 46 | 1013.9 |
| 20260509002010 | 64 | 155 | 0.0 | 0.0 | 0.00 | 0.00 | 0.00 | 45 | 1013.8 |
| 20260509001520 | 65 | 154 | 0.0 | 1.0 | 0.00 | 0.00 | 0.00 | 43 | 1013.8 |
| 20260509001005 | 65 | 154 | 0.0 | 3.0 | 0.00 | 0.00 | 0.00 | 43 | 1013.7 |
| 20260509000507 | 65 | 161 | 0.0 | 3.0 | 0.00 | 0.00 | 0.00 | 42 | 1013.7 |
| 20260509000035 | 66 | 150 | 0.0 | 4.0 | 0.00 | 0.00 | 0.00 | 41 | 1013.6 |
| 20260508235503 | 66 | 135 | 0.0 | 4.0 | 0.00 | 0.00 | 0.00 | 42 | 1013.4 |
| 20260508235007 | 66 | 173 | 1.0 | 3.0 | 0.00 | 0.00 | 0.00 | 41 | 1013.4 |
| 20260508234522 | 67 | 120 | 1.0 | 7.0 | 0.00 | 0.00 | 0.00 | 41 | 1013.4 |
| 20260508234003 | 67 | 178 | 1.0 | 7.0 | 0.00 | 0.00 | 0.00 | 40 | 1013.3 |
| 20260508233508 | 67 | 185 | 1.0 | 3.0 | 0.00 | 0.00 | 0.00 | 41 | 1013.2 |
| 20260508233022 | 67 | 155 | 0.0 | 3.0 | 0.00 | 0.00 | 0.00 | 41 | 1013.2 |
| 20260508232502 | 68 | 155 | 0.0 | 6.0 | 0.00 | 0.00 | 0.00 | 41 | 1013.1 |
| 20260508232006 | 68 | 85 | 1.0 | 6.0 | 0.00 | 0.00 | 0.00 | 41 | 1013.1 |
| 20260508231524 | 68 | 164 | 0.0 | 5.0 | 0.00 | 0.00 | 0.00 | 40 | 1013.1 |
| 20260508231005 | 68 | 152 | 0.0 | 7.0 | 0.00 | 0.00 | 0.00 | 39 | 1013.0 |
| 20260508230507 | 68 | 190 | 1.0 | 7.0 | 0.00 | 0.00 | 0.00 | 40 | 1013.0 |
| 20260508230022 | 68 | 196 | 2.0 | 7.0 | 0.00 | 0.00 | 0.00 | 40 | 1013.0 |
| 20260508225503 | 68 | 134 | 1.0 | 4.0 | 0.00 | 0.00 | 0.00 | 40 | 1013.0 |
| 20260508225009 | 68 | 88 | 0.0 | 4.0 | 0.00 | 0.00 | 0.00 | 41 | 1013.0 |
| 20260508224547 | 69 | 323 | 1.0 | 8.0 | 0.00 | 0.00 | 0.00 | 39 | 1012.9 |
| 20260508224006 | 69 | 150 | 0.0 | 8.0 | 0.00 | 0.00 | 0.00 | 39 | 1013.0 |
| 20260508223506 | 69 | 99 | 3.0 | 8.0 | 0.00 | 0.00 | 0.00 | 38 | 1013.0 |
| 20260508223025 | 69 | 133 | 1.0 | 6.0 | 0.00 | 0.00 | 0.00 | 37 | 1013.0 |
| 20260508222504 | 69 | 116 | 1.0 | 6.0 | 0.00 | 0.00 | 0.00 | 39 | 1013.0 |
| 20260508222011 | 69 | 195 | 0.0 | 4.0 | 0.00 | 0.00 | 0.00 | 37 | 1013.1 |
| 20260508221531 | 69 | 142 | 1.0 | 6.0 | 0.00 | 0.00 | 0.00 | 36 | 1013.2 |
| 20260508221008 | 69 | 123 | 0.0 | 6.0 | 0.00 | 0.00 | 0.00 | 37 | 1013.3 |
| 20260508220506 | 69 | 126 | 1.0 | 6.0 | 0.00 | 0.00 | 0.00 | 36 | 1013.4 |
| 20260508220031 | 70 | 28 | 1.0 | 5.0 | 0.00 | 0.00 | 0.00 | 38 | 1013.4 |
| 20260508215507 | 70 | 201 | 0.0 | 3.0 | 0.00 | 0.00 | 0.00 | 38 | 1013.4 |
| 20260508215006 | 70 | 130 | 0.0 | 3.0 | 0.00 | 0.00 | 0.00 | 37 | 1013.4 |
| 20260508214535 | 70 | 100 | 1.0 | 3.0 | 0.00 | 0.00 | 0.00 | 37 | 1013.4 |
| 20260508214006 | 70 | 133 | 0.0 | 5.0 | 0.00 | 0.00 | 0.00 | 38 | 1013.4 |
| 20260508213507 | 70 | 132 | 1.0 | 5.0 | 0.00 | 0.00 | 0.00 | 38 | 1013.4 |
| 20260508213032 | 70 | 317 | 1.0 | 6.0 | 0.00 | 0.00 | 0.00 | 38 | 1013.4 |
| 20260508212507 | 70 | 40 | 0.0 | 6.0 | 0.00 | 0.00 | 0.00 | 35 | 1013.4 |
| 20260508212009 | 70 | 146 | 2.0 | 5.0 | 0.00 | 0.00 | 0.00 | 35 | 1013.5 |
| 20260508211527 | 70 | 21 | 0.0 | 3.0 | 0.00 | 0.00 | 0.00 | 34 | 1013.3 |
| 20260508211007 | 70 | 360 | 0.0 | 4.0 | 0.00 | 0.00 | 0.00 | 38 | 1013.3 |
| 20260508210510 | 70 | 114 | 1.0 | 4.0 | 0.00 | 0.00 | 0.00 | 34 | 1013.3 |
| 20260508210028 | 71 | 235 | 0.0 | 4.0 | 0.00 | 0.00 | 0.00 | 38 | 1013.3 |
| 20260508205507 | 71 | 355 | 1.0 | 5.0 | 0.00 | 0.00 | 0.00 | 36 | 1013.4 |
| 20260508205009 | 71 | 205 | 1.0 | 7.0 | 0.00 | 0.00 | 0.00 | 37 | 1013.5 |
| 20260508204528 | 71 | 88 | 2.0 | 7.0 | 0.00 | 0.00 | 0.00 | 34 | 1013.5 |
| 20260508204006 | 71 | 52 | 1.0 | 7.0 | 0.00 | 0.00 | 0.00 | 34 | 1013.6 |
| 20260508203514 | 71 | 350 | 1.0 | 7.0 | 0.00 | 0.01 | 0.00 | 36 | 1013.7 |
| 20260508203028 | 71 | 163 | 1.0 | 8.0 | 0.00 | 0.02 | 0.00 | 37 | 1013.7 |
| 20260508202507 | 71 | 177 | 1.0 | 8.0 | 0.00 | 0.03 | 0.00 | 37 | 1013.7 |
| 20260508202012 | 71 | 130 | 4.0 | 8.0 | 0.00 | 0.04 | 0.00 | 34 | 1013.7 |
| 20260508201509 | 71 | 189 | 0.0 | 9.0 | 0.00 | 0.05 | 0.00 | 38 | 1013.7 |
| 20260508201008 | 70 | 90 | 1.0 | 9.0 | 0.00 | 0.06 | 0.00 | 38 | 1013.8 |
| 20260508200507 | 71 | 327 | 3.0 | 9.0 | 0.00 | 0.06 | 0.00 | 35 | 1013.8 |
| 20260508200027 | 71 | 15 | 1.0 | 6.0 | 0.00 | 0.07 | 0.00 | 38 | 1014.0 |
| 20260508195509 | 71 | 107 | 0.0 | 10.0 | 0.00 | 0.07 | 0.00 | 36 | 1014.0 |
| 20260508195009 | 71 | 30 | 1.0 | 10.0 | 0.00 | 0.07 | 0.00 | 35 | 1013.9 |
| 20260508194514 | 71 | 178 | 1.0 | 7.0 | 0.00 | 0.09 | 0.00 | 45 | 1014.0 |
| 20260508194011 | 70 | 134 | 2.0 | 7.0 | 0.00 | 0.11 | 0.00 | 36 | 1014.0 |
| 20260508193509 | 71 | 181 | 2.0 | 8.0 | 0.00 | 0.11 | 0.00 | 36 | 1014.1 |
| 20260508193024 | 70 | 144 | 2.0 | 8.0 | 0.00 | 0.11 | 0.00 | 39 | 1014.2 |
| 20260508192515 | 70 | 42 | 1.0 | 6.0 | 0.00 | 0.11 | 0.00 | 39 | 1014.1 |
| 20260508192014 | 69 | 154 | 2.0 | 5.0 | 0.00 | 0.11 | 0.00 | 37 | 1014.4 |
| 20260508191512 | 70 | 5 | 3.0 | 6.0 | 0.00 | 0.11 | 0.00 | 38 | 1014.5 |
| 20260508191007 | 69 | 30 | 1.0 | 6.0 | 0.00 | 0.11 | 0.00 | 35 | 1014.6 |
| 20260508190515 | 70 | 355 | 2.0 | 6.0 | 0.00 | 0.11 | 0.00 | 37 | 1014.7 |
| 20260508190018 | 70 | 218 | 0.0 | 4.0 | 0.00 | 0.11 | 0.00 | 38 | 1014.9 |
| 20260508185507 | 70 | 190 | 1.0 | 4.0 | 0.00 | 0.11 | 0.00 | 35 | 1014.9 |
| 20260508185010 | 69 | 160 | 1.0 | 4.0 | 0.00 | 0.11 | 0.00 | 37 | 1015.0 |
| 20260508184524 | 69 | 50 | 1.0 | 4.0 | 0.00 | 0.11 | 0.00 | 40 | 1015.2 |
| 20260508184009 | 69 | 30 | 0.0 | 4.0 | 0.00 | 0.11 | 0.00 | 41 | 1015.1 |
| 20260508183512 | 69 | 140 | 1.0 | 6.0 | 0.00 | 0.11 | 0.00 | 36 | 1015.1 |
| 20260508183017 | 68 | 175 | 1.0 | 6.0 | 0.00 | 0.11 | 0.00 | 37 | 1015.2 |
| 20260508182507 | 68 | 150 | 1.0 | 5.0 | 0.00 | 0.11 | 0.00 | 35 | 1015.2 |
| 20260508182013 | 69 | 132 | 0.0 | 3.0 | 0.00 | 0.11 | 0.00 | 41 | 1015.3 |
| 20260508181516 | 70 | 148 | 1.0 | 3.0 | 0.00 | 0.11 | 0.00 | 39 | 1015.4 |
| 20260508181013 | 69 | 117 | 1.0 | 4.0 | 0.00 | 0.11 | 0.00 | 46 | 1015.4 |
| 20260508180510 | 68 | 177 | 0.0 | 6.0 | 0.00 | 0.11 | 0.00 | 43 | 1015.5 |
| 20260508180012 | 68 | 158 | 1.0 | 6.0 | 0.00 | 0.11 | 0.00 | 44 | 1015.6 |
| 20260508175504 | 68 | 9 | 2.0 | 6.0 | 0.00 | 0.11 | 0.00 | 43 | 1015.6 |
| 20260508175006 | 68 | 29 | 1.0 | 6.0 | 0.00 | 0.11 | 0.00 | 39 | 1015.6 |
| 20260508174510 | 68 | 329 | 1.0 | 6.0 | 0.00 | 0.11 | 0.00 | 46 | 1015.7 |
| 20260508174001 | 67 | 147 | 1.0 | 8.0 | 0.00 | 0.11 | 0.00 | 41 | 1015.6 |
| 20260508173505 | 68 | 229 | 1.0 | 8.0 | 0.00 | 0.11 | 0.00 | 38 | 1015.8 |